,,PA_Meas_PMT16A,,PR_Meas_QMR101_102,,RH_Meas_QMH101,,SR_Meas_QMS101,,TA_Meas_QMH101,,GenWind,,GenWind,
time,status,PA,status,PR,status,RH,status,SR,status,TA,status,DirAvg,status,SpdAvg,
2013-03-02, 00:00:04,VALID,918.649,VALID,0,VALID,94.9344,VALID,0,VALID,20.8161,VALID,349,VALID,0,
2013-03-02, 00:01:04,VALID,918.641,VALID,0,VALID,94.9496,VALID,0,VALID,20.8356,VALID,349,VALID,0,
2013-03-02, 00:02:04,VALID,918.631,VALID,0,VALID,94.9344,VALID,0,VALID,20.8746,VALID,349,VALID,0,
2013-03-02, 00:03:04,VALID,918.646,VALID,0,VALID,94.9496,VALID,0,VALID,20.873,VALID,349,VALID,0,
2013-03-02, 00:04:04,VALID,918.628,VALID,0,VALID,94.9496,VALID,0,VALID,20.8925,VALID,349,VALID,0,
2013-03-02, 00:05:04,VALID,918.642,VALID,0,VALID,94.6142,VALID,0,VALID,20.8746,VALID,349,VALID,0,
2013-03-02, 00:06:04,VALID,918.685,VALID,0,VALID,94.6905,VALID,0,VALID,20.8551,VALID,349,VALID,0,
2013-03-02, 00:07:04,VALID,918.661,VALID,0,VALID,94.7591,VALID,0,VALID,20.8941,VALID,349,VALID,0,
2013-03-02, 00:08:04,VALID,918.657,VALID,0,VALID,94.2788,VALID,0,VALID,20.8161,VALID,349,VALID,0,
2013-03-02, 00:09:04,VALID,918.646,VALID,0,VALID,94.1873,VALID,0,VALID,20.7576,VALID,349,VALID,0,
2013-03-02, 00:10:04,VALID,918.638,VALID,0,VALID,94.4084,VALID,0,VALID,20.7771,VALID,349,VALID,0,
2013-03-02, 00:11:04,VALID,918.668,VALID,0,VALID,94.7133,VALID,0,VALID,20.8145,VALID,349,VALID,0,
2013-03-02, 00:12:04,VALID,918.663,VALID,0,VALID,94.8887,VALID,0,VALID,20.8551,VALID,349,VALID,0,
2013-03-02, 00:13:04,VALID,918.629,VALID,0,VALID,94.6752,VALID,0,VALID,20.8551,VALID,349,VALID,0,
2013-03-02, 00:14:04,VALID,918.618,VALID,0,VALID,94.7286,VALID,0,VALID,20.8161,VALID,349,VALID,0,
2013-03-02, 00:15:04,VALID,918.64,VALID,0,VALID,94.8887,VALID,0,VALID,20.8551,VALID,349,VALID,0,
2013-03-02, 00:16:04,VALID,918.639,VALID,0,VALID,94.7819,VALID,0,VALID,20.8161,VALID,349,VALID,0,
2013-03-02, 00:17:04,VALID,918.644,VALID,0,VALID,94.7057,VALID,0,VALID,20.7755,VALID,349,VALID,0,
2013-03-02, 00:18:04,VALID,918.602,VALID,0,VALID,94.7438,VALID,0,VALID,20.7576,VALID,349,VALID,0,
2013-03-02, 00:19:04,VALID,918.568,VALID,0,VALID,94.8124,VALID,0,VALID,20.7576,VALID,349,VALID,0,
2013-03-02, 00:20:04,VALID,918.561,VALID,0,VALID,94.9573,VALID,0,VALID,20.7381,VALID,349,VALID,0,
2013-03-02, 00:21:04,VALID,918.571,VALID,0,VALID,95.003,VALID,0,VALID,20.7185,VALID,349,VALID,0,
2013-03-02, 00:22:04,VALID,918.547,VALID,0,VALID,95.1631,VALID,0,VALID,20.7381,VALID,349,VALID,0,
2013-03-02, 00:23:04,VALID,918.563,VALID,0,VALID,95.2546,VALID,0,VALID,20.7982,VALID,349,VALID,0,
2013-03-02, 00:24:04,VALID,918.538,VALID,0,VALID,95.2393,VALID,0,VALID,20.7576,VALID,349,VALID,0,
2013-03-02, 00:25:04,VALID,918.504,VALID,0,VALID,95.3003,VALID,0,VALID,20.7576,VALID,349,VALID,0,
2013-03-02, 00:26:04,VALID,918.487,VALID,0,VALID,95.3613,VALID,0,VALID,20.7966,VALID,349,VALID,0,
2013-03-02, 00:27:04,VALID,918.488,VALID,0,VALID,95.4223,VALID,0,VALID,20.8161,VALID,349,VALID,0,
2013-03-02, 00:28:04,VALID,918.469,VALID,0,VALID,95.4071,VALID,0,VALID,20.8161,VALID,349,VALID,0,
2013-03-02, 00:29:04,VALID,918.448,VALID,0,VALID,95.4528,VALID,0,VALID,20.7755,VALID,349,VALID,0,
2013-03-02, 00:30:04,VALID,918.439,VALID,0,VALID,95.4604,VALID,0,VALID,20.7771,VALID,349,VALID,0,
2013-03-02, 00:31:04,VALID,918.441,VALID,0,VALID,95.4528,VALID,0,VALID,20.7576,VALID,349,VALID,0,
2013-03-02, 00:32:04,VALID,918.411,VALID,0,VALID,95.4528,VALID,0,VALID,20.7381,VALID,349,VALID,0,
2013-03-02, 00:33:04,VALID,918.416,VALID,0,VALID,95.2546,VALID,0,VALID,20.699,VALID,349,VALID,0,
2013-03-02, 00:34:04,VALID,918.387,VALID,0,VALID,95.2088,VALID,0,VALID,20.6795,VALID,349,VALID,0,
2013-03-02, 00:35:04,VALID,918.367,VALID,0,VALID,95.3156,VALID,0,VALID,20.66,VALID,349,VALID,0,
2013-03-02, 00:36:04,VALID,918.343,VALID,0,VALID,95.3232,VALID,0.107441,VALID,20.6795,VALID,349,VALID,0,
2013-03-02, 00:37:04,VALID,918.307,VALID,0,VALID,95.1707,VALID,0,VALID,20.6405,VALID,349,VALID,0,
2013-03-02, 00:38:04,VALID,918.255,VALID,0,VALID,95.1936,VALID,0,VALID,20.6405,VALID,349,VALID,0,
2013-03-02, 00:39:04,VALID,918.215,VALID,0,VALID,95.1936,VALID,0,VALID,20.6194,VALID,349,VALID,0,
2013-03-02, 00:40:04,VALID,918.187,VALID,0,VALID,95.1783,VALID,0,VALID,20.66,VALID,349,VALID,0,
2013-03-02, 00:41:04,VALID,918.157,VALID,0,VALID,95.0945,VALID,0,VALID,20.6405,VALID,349,VALID,0,
2013-03-02, 00:42:04,VALID,918.126,VALID,0,VALID,95.0411,VALID,0,VALID,20.621,VALID,349,VALID,0,
2013-03-02, 00:43:04,VALID,918.096,VALID,0,VALID,94.881,VALID,0,VALID,20.6015,VALID,349,VALID,0,
2013-03-02, 00:44:04,VALID,918.096,VALID,0,VALID,94.8277,VALID,0,VALID,20.5609,VALID,349,VALID,0,
2013-03-02, 00:45:04,VALID,918.081,VALID,0,VALID,94.9115,VALID,0,VALID,20.5625,VALID,349,VALID,0,
2013-03-02, 00:46:04,VALID,918.06,VALID,0,VALID,94.8505,VALID,0,VALID,20.582,VALID,349,VALID,0,
2013-03-02, 00:47:04,VALID,918.014,VALID,0,VALID,94.8429,VALID,0,VALID,20.5414,VALID,349,VALID,0,
2013-03-02, 00:48:04,VALID,918.006,VALID,0,VALID,94.7743,VALID,0,VALID,20.543,VALID,349,VALID,0,
2013-03-02, 00:49:04,VALID,917.954,VALID,0,VALID,94.7514,VALID,0,VALID,20.5235,VALID,349,VALID,0,
2013-03-02, 00:50:04,VALID,917.924,VALID,0,VALID,94.6905,VALID,0,VALID,20.5235,VALID,349,VALID,0,
2013-03-02, 00:51:04,VALID,917.926,VALID,0,VALID,94.66,VALID,0,VALID,20.504,VALID,349,VALID,0,
2013-03-02, 00:52:04,VALID,917.878,VALID,0,VALID,94.5456,VALID,0.107441,VALID,20.4845,VALID,349,VALID,0,
2013-03-02, 00:53:04,VALID,917.847,VALID,0,VALID,94.538,VALID,0,VALID,20.465,VALID,349,VALID,0,
2013-03-02, 00:54:04,VALID,917.834,VALID,0,VALID,94.5227,VALID,0,VALID,20.4439,VALID,349,VALID,0,
2013-03-02, 00:55:04,VALID,917.812,VALID,0,VALID,94.5913,VALID,0,VALID,20.465,VALID,349,VALID,0,
2013-03-02, 00:56:04,VALID,917.803,VALID,0,VALID,94.6218,VALID,0.107441,VALID,20.4829,VALID,349,VALID,0,
2013-03-02, 00:57:04,VALID,917.828,VALID,0,VALID,94.7591,VALID,0,VALID,20.4829,VALID,349,VALID,0,
2013-03-02, 00:58:04,VALID,917.839,VALID,0,VALID,94.5151,VALID,0,VALID,20.4845,VALID,349,VALID,0,
2013-03-02, 00:59:04,VALID,917.837,VALID,0,VALID,94.4617,VALID,0,VALID,20.4845,VALID,349,VALID,0,
2013-03-02, 01:00:04,VALID,917.831,VALID,0,VALID,94.4846,VALID,0,VALID,20.504,VALID,349,VALID,0,
2013-03-02, 01:01:04,VALID,917.899,VALID,0,VALID,94.3931,VALID,0,VALID,20.504,VALID,349,VALID,0,
2013-03-02, 01:02:04,VALID,917.919,VALID,0,VALID,94.3855,VALID,0,VALID,20.4845,VALID,349,VALID,0,
2013-03-02, 01:03:04,VALID,917.902,VALID,0,VALID,94.416,VALID,0,VALID,20.4845,VALID,349,VALID,0,
2013-03-02, 01:04:04,VALID,917.883,VALID,0,VALID,94.4694,VALID,0,VALID,20.465,VALID,349,VALID,0,
2013-03-02, 01:05:04,VALID,917.846,VALID,0,VALID,94.599,VALID,0,VALID,20.465,VALID,349,VALID,0,
2013-03-02, 01:06:04,VALID,917.832,VALID,0,VALID,94.6676,VALID,0.107441,VALID,20.4454,VALID,349,VALID,0,
2013-03-02, 01:07:04,VALID,917.831,VALID,0,VALID,94.6066,VALID,0,VALID,20.4064,VALID,349,VALID,0,
2013-03-02, 01:08:04,VALID,917.851,VALID,0,VALID,94.4541,VALID,0,VALID,20.3284,VALID,349,VALID,0,
2013-03-02, 01:09:04,VALID,917.872,VALID,0,VALID,94.5609,VALID,0,VALID,20.3089,VALID,349,VALID,0,
2013-03-02, 01:10:04,VALID,917.877,VALID,0,VALID,94.6066,VALID,0.107441,VALID,20.3089,VALID,349,VALID,0,
2013-03-02, 01:11:04,VALID,917.868,VALID,0,VALID,94.8048,VALID,0,VALID,20.3284,VALID,349,VALID,0,
2013-03-02, 01:12:04,VALID,917.86,VALID,0,VALID,94.9725,VALID,0,VALID,20.3479,VALID,349,VALID,0,
2013-03-02, 01:13:04,VALID,917.856,VALID,0,VALID,94.7286,VALID,0,VALID,20.2894,VALID,349,VALID,0,
2013-03-02, 01:14:04,VALID,917.843,VALID,0,VALID,94.4389,VALID,0,VALID,20.1529,VALID,349,VALID,0,
2013-03-02, 01:15:04,VALID,917.841,VALID,0,VALID,95.064,VALID,0,VALID,20.1724,VALID,1,VALID,0,
2013-03-02, 01:16:04,VALID,917.878,VALID,0,VALID,95.2012,VALID,0,VALID,20.2309,VALID,1,VALID,0,
2013-03-02, 01:17:04,VALID,917.843,VALID,0,VALID,95.4299,VALID,0,VALID,20.2309,VALID,1,VALID,0,
2013-03-02, 01:18:04,VALID,917.8,VALID,0,VALID,95.5138,VALID,0,VALID,20.2894,VALID,1,VALID,0,
2013-03-02, 01:19:04,VALID,917.776,VALID,0,VALID,95.5367,VALID,0,VALID,20.2894,VALID,2,VALID,0,
2013-03-02, 01:20:04,VALID,917.759,VALID,0,VALID,95.5748,VALID,0,VALID,20.3089,VALID,6,VALID,0,
2013-03-02, 01:21:04,VALID,917.724,VALID,0,VALID,95.5824,VALID,0,VALID,20.3284,VALID,6,VALID,0,
2013-03-02, 01:22:04,VALID,917.771,VALID,0,VALID,95.6815,VALID,0,VALID,20.3674,VALID,6,VALID,0,
2013-03-02, 01:23:04,VALID,917.781,VALID,0,VALID,95.7044,VALID,0,VALID,20.4064,VALID,6,VALID,0,
2013-03-02, 01:24:04,VALID,917.836,VALID,0,VALID,95.7425,VALID,0,VALID,20.4259,VALID,6,VALID,0,
2013-03-02, 01:25:04,VALID,917.84,VALID,0,VALID,95.7272,VALID,0,VALID,20.465,VALID,6,VALID,0,
2013-03-02, 01:26:04,VALID,917.79,VALID,0,VALID,95.5824,VALID,0,VALID,20.465,VALID,6,VALID,0,
2013-03-02, 01:27:04,VALID,917.807,VALID,0,VALID,95.3232,VALID,0,VALID,20.447,VALID,6,VALID,0,
2013-03-02, 01:28:04,VALID,917.802,VALID,0,VALID,95.2851,VALID,0,VALID,20.3885,VALID,6,VALID,0,
2013-03-02, 01:29:04,VALID,917.808,VALID,0,VALID,95.4452,VALID,0,VALID,20.3869,VALID,6,VALID,0,
2013-03-02, 01:30:04,VALID,917.816,VALID,0,VALID,95.5443,VALID,0,VALID,20.4259,VALID,6,VALID,0,
2013-03-02, 01:31:04,VALID,917.774,VALID,0,VALID,95.5824,VALID,0,VALID,20.465,VALID,6,VALID,0,
2013-03-02, 01:32:04,VALID,917.799,VALID,0,VALID,95.468,VALID,0,VALID,20.504,VALID,6,VALID,0,
2013-03-02, 01:33:04,VALID,917.763,VALID,0,VALID,95.2927,VALID,0,VALID,20.504,VALID,6,VALID,0,
2013-03-02, 01:34:04,VALID,917.772,VALID,0,VALID,95.1631,VALID,0,VALID,20.4845,VALID,6,VALID,0,
2013-03-02, 01:35:04,VALID,917.775,VALID,0,VALID,95.0488,VALID,0,VALID,20.4845,VALID,6,VALID,0,
2013-03-02, 01:36:04,VALID,917.815,VALID,0,VALID,94.9496,VALID,0,VALID,20.4244,VALID,6,VALID,0,
2013-03-02, 01:37:04,VALID,917.796,VALID,0,VALID,95.1097,VALID,0,VALID,20.4259,VALID,6,VALID,0,
2013-03-02, 01:38:04,VALID,917.788,VALID,0,VALID,95.0106,VALID,0,VALID,20.4454,VALID,6,VALID,0,
2013-03-02, 01:39:04,VALID,917.769,VALID,0,VALID,95.0259,VALID,0,VALID,20.4064,VALID,6,VALID,0,
2013-03-02, 01:40:04,VALID,917.735,VALID,0,VALID,95.1555,VALID,0,VALID,20.4259,VALID,6,VALID,0,
2013-03-02, 01:41:04,VALID,917.722,VALID,0,VALID,95.1936,VALID,0,VALID,20.4259,VALID,3,VALID,0,
2013-03-02, 01:42:04,VALID,917.702,VALID,0,VALID,95.2165,VALID,0,VALID,20.447,VALID,333,VALID,0,
2013-03-02, 01:43:04,VALID,917.69,VALID,0,VALID,95.2851,VALID,0,VALID,20.4454,VALID,333,VALID,0,
2013-03-02, 01:44:04,VALID,917.71,VALID,0,VALID,95.2393,VALID,0,VALID,20.4259,VALID,333,VALID,0,
2013-03-02, 01:45:04,VALID,917.683,VALID,0,VALID,95.3994,VALID,0,VALID,20.4259,VALID,333,VALID,0,
2013-03-02, 01:46:04,VALID,917.677,VALID,0,VALID,95.4071,VALID,0,VALID,20.4064,VALID,333,VALID,0,
2013-03-02, 01:47:04,VALID,917.663,VALID,0,VALID,95.3384,VALID,0,VALID,20.4275,VALID,333,VALID,0,
2013-03-02, 01:48:04,VALID,917.628,VALID,0,VALID,95.3918,VALID,0,VALID,20.3869,VALID,333,VALID,0,
2013-03-02, 01:49:04,VALID,917.639,VALID,0,VALID,95.4985,VALID,0,VALID,20.3869,VALID,333,VALID,0,
2013-03-02, 01:50:04,VALID,917.61,VALID,0,VALID,95.5671,VALID,0,VALID,20.4064,VALID,333,VALID,0,
2013-03-02, 01:51:04,VALID,917.666,VALID,0,VALID,95.651,VALID,0,VALID,20.408,VALID,333,VALID,0,
2013-03-02, 01:52:04,VALID,917.675,VALID,0,VALID,95.7501,VALID,0,VALID,20.3869,VALID,333,VALID,0,
2013-03-02, 01:53:04,VALID,917.65,VALID,0,VALID,95.8111,VALID,0,VALID,20.408,VALID,333,VALID,0,
2013-03-02, 01:54:04,VALID,917.603,VALID,0,VALID,95.8492,VALID,0,VALID,20.3869,VALID,333,VALID,0,
2013-03-02, 01:55:04,VALID,917.539,VALID,0,VALID,95.8797,VALID,0,VALID,20.4259,VALID,333,VALID,0,
2013-03-02, 01:56:04,VALID,917.535,VALID,0,VALID,95.9331,VALID,0,VALID,20.4064,VALID,333,VALID,0,
2013-03-02, 01:57:04,VALID,917.503,VALID,0,VALID,95.9407,VALID,0,VALID,20.3869,VALID,333,VALID,0,
2013-03-02, 01:58:04,VALID,917.549,VALID,0,VALID,95.9636,VALID,0,VALID,20.3869,VALID,333,VALID,0,
2013-03-02, 01:59:04,VALID,917.506,VALID,0,VALID,95.9483,VALID,0,VALID,20.3284,VALID,333,VALID,0,
2013-03-02, 02:00:04,VALID,917.504,VALID,0,VALID,95.9864,VALID,0,VALID,20.3074,VALID,333,VALID,0,
2013-03-02, 02:01:04,VALID,917.475,VALID,0,VALID,96.0398,VALID,0,VALID,20.3479,VALID,333,VALID,0,
2013-03-02, 02:02:04,VALID,917.442,VALID,0,VALID,96.0703,VALID,0,VALID,20.3479,VALID,333,VALID,0,
2013-03-02, 02:03:04,VALID,917.423,VALID,0,VALID,96.0627,VALID,0,VALID,20.3089,VALID,333,VALID,0,
2013-03-02, 02:04:04,VALID,917.408,VALID,0,VALID,96.0855,VALID,0,VALID,20.3089,VALID,333,VALID,0,
2013-03-02, 02:05:04,VALID,917.375,VALID,0,VALID,96.1618,VALID,0,VALID,20.369,VALID,333,VALID,0,
2013-03-02, 02:06:04,VALID,917.355,VALID,0,VALID,96.1389,VALID,0,VALID,20.3284,VALID,333,VALID,0,
2013-03-02, 02:07:04,VALID,917.387,VALID,0,VALID,96.1313,VALID,0,VALID,20.3089,VALID,333,VALID,0,
2013-03-02, 02:08:04,VALID,917.404,VALID,0,VALID,96.1313,VALID,0,VALID,20.3479,VALID,333,VALID,0,
2013-03-02, 02:09:04,VALID,917.374,VALID,0,VALID,96.1846,VALID,0,VALID,20.3479,VALID,333,VALID,0,
2013-03-02, 02:10:04,VALID,917.381,VALID,0,VALID,96.1923,VALID,0,VALID,20.3479,VALID,333,VALID,0,
2013-03-02, 02:11:04,VALID,917.396,VALID,0,VALID,96.1694,VALID,0,VALID,20.3479,VALID,333,VALID,0,
2013-03-02, 02:12:04,VALID,917.415,VALID,0,VALID,96.1465,VALID,0,VALID,20.3479,VALID,333,VALID,0,
2013-03-02, 02:13:04,VALID,917.384,VALID,0,VALID,96.1008,VALID,0,VALID,20.3479,VALID,333,VALID,0,
2013-03-02, 02:14:04,VALID,917.389,VALID,0,VALID,96.0627,VALID,0,VALID,20.3479,VALID,333,VALID,0,
2013-03-02, 02:15:04,VALID,917.346,VALID,0,VALID,96.0627,VALID,0,VALID,20.3674,VALID,333,VALID,0,
2013-03-02, 02:16:04,VALID,917.31,VALID,0,VALID,96.0245,VALID,0,VALID,20.3074,VALID,333,VALID,0,
2013-03-02, 02:17:04,VALID,917.281,VALID,0,VALID,95.9864,VALID,0,VALID,20.3284,VALID,333,VALID,0,
2013-03-02, 02:18:04,VALID,917.245,VALID,0,VALID,95.9712,VALID,0,VALID,20.3284,VALID,333,VALID,0,
2013-03-02, 02:19:04,VALID,917.227,VALID,0,VALID,95.9712,VALID,0,VALID,20.3284,VALID,333,VALID,0,
2013-03-02, 02:20:04,VALID,917.185,VALID,0,VALID,95.9941,VALID,0,VALID,20.3269,VALID,333,VALID,0,
2013-03-02, 02:21:04,VALID,917.211,VALID,0,VALID,95.9712,VALID,0,VALID,20.3284,VALID,333,VALID,0,
2013-03-02, 02:22:04,VALID,917.218,VALID,0,VALID,95.9178,VALID,0,VALID,20.3089,VALID,333,VALID,0,
2013-03-02, 02:23:04,VALID,917.264,VALID,0,VALID,95.895,VALID,0,VALID,20.2879,VALID,333,VALID,0,
2013-03-02, 02:24:04,VALID,917.284,VALID,0,VALID,95.8416,VALID,0,VALID,20.2894,VALID,333,VALID,0,
2013-03-02, 02:25:04,VALID,917.292,VALID,0,VALID,95.7577,VALID,0,VALID,20.2699,VALID,333,VALID,0,
2013-03-02, 02:26:04,VALID,917.282,VALID,0,VALID,95.9254,VALID,0,VALID,20.3479,VALID,333,VALID,0,
2013-03-02, 02:27:04,VALID,917.22,VALID,0,VALID,95.9178,VALID,0,VALID,20.3089,VALID,334,VALID,0,
2013-03-02, 02:28:04,VALID,917.253,VALID,0,VALID,95.9636,VALID,0,VALID,20.3089,VALID,354,VALID,0,
2013-03-02, 02:29:04,VALID,917.273,VALID,0,VALID,95.9712,VALID,0,VALID,20.2894,VALID,354,VALID,0,
2013-03-02, 02:30:04,VALID,917.33,VALID,0,VALID,95.5595,VALID,0,VALID,20.1529,VALID,354,VALID,0,
2013-03-02, 02:31:04,VALID,917.292,VALID,0,VALID,95.3766,VALID,0,VALID,20.0163,VALID,354,VALID,0,
2013-03-02, 02:32:04,VALID,917.349,VALID,0,VALID,95.4375,VALID,0,VALID,19.9188,VALID,354,VALID,0,
2013-03-02, 02:33:04,VALID,917.439,VALID,0,VALID,95.9026,VALID,0,VALID,19.9578,VALID,354,VALID,0,
2013-03-02, 02:34:04,VALID,917.447,VALID,0,VALID,95.9712,VALID,0,VALID,20.0163,VALID,354,VALID,0,
2013-03-02, 02:35:04,VALID,917.411,VALID,0,VALID,96.0855,VALID,0,VALID,20.0749,VALID,354,VALID,0,
2013-03-02, 02:36:04,VALID,917.45,VALID,0,VALID,96.1846,VALID,0,VALID,20.1139,VALID,354,VALID,0,
2013-03-02, 02:37:04,VALID,917.515,VALID,0,VALID,96.2837,VALID,0,VALID,20.2114,VALID,354,VALID,0,
2013-03-02, 02:38:04,VALID,917.488,VALID,0,VALID,96.3447,VALID,0,VALID,20.2489,VALID,354,VALID,0,
2013-03-02, 02:39:04,VALID,917.561,VALID,0,VALID,96.3676,VALID,0,VALID,20.3495,VALID,354,VALID,0,
2013-03-02, 02:40:04,VALID,917.613,VALID,0,VALID,96.4133,VALID,0,VALID,20.3674,VALID,354,VALID,0,
2013-03-02, 02:41:04,VALID,917.629,VALID,0,VALID,96.4133,VALID,0,VALID,20.3674,VALID,354,VALID,0,
2013-03-02, 02:42:04,VALID,917.563,VALID,0,VALID,96.3905,VALID,0,VALID,20.369,VALID,354,VALID,0,
2013-03-02, 02:43:04,VALID,917.487,VALID,0,VALID,96.3447,VALID,0,VALID,20.2504,VALID,354,VALID,0,
2013-03-02, 02:44:04,VALID,917.452,VALID,0,VALID,96.238,VALID,0,VALID,20.1529,VALID,354,VALID,0,
2013-03-02, 02:45:04,VALID,917.487,VALID,0,VALID,96.3219,VALID,0,VALID,20.2129,VALID,354,VALID,0,
2013-03-02, 02:46:04,VALID,917.539,VALID,0,VALID,96.36,VALID,0,VALID,20.1724,VALID,354,VALID,0,
2013-03-02, 02:47:04,VALID,917.013,VALID,0,VALID,96.3524,VALID,0,VALID,20.1334,VALID,354,VALID,0,
2013-03-02, 02:48:04,VALID,917.424,VALID,0,VALID,96.421,VALID,0,VALID,20.1724,VALID,354,VALID,0,
2013-03-02, 02:49:04,VALID,917.586,VALID,0,VALID,96.4819,VALID,0,VALID,20.2114,VALID,354,VALID,0,
2013-03-02, 02:50:04,VALID,917.593,VALID,0,VALID,96.5048,VALID,0,VALID,20.2114,VALID,354,VALID,0,
2013-03-02, 02:51:04,VALID,917.543,VALID,0,VALID,96.5048,VALID,0,VALID,20.1724,VALID,354,VALID,0,
2013-03-02, 02:52:04,VALID,917.988,VALID,0,VALID,96.4972,VALID,0,VALID,20.1724,VALID,354,VALID,0,
2013-03-02, 02:53:04,VALID,917.71,VALID,0,VALID,96.4896,VALID,0,VALID,20.1334,VALID,354,VALID,0,
2013-03-02, 02:54:04,VALID,917.779,VALID,0,VALID,96.4819,VALID,0,VALID,20.0749,VALID,354,VALID,0,
2013-03-02, 02:55:04,VALID,917.815,VALID,0,VALID,96.4896,VALID,0.107441,VALID,20.0538,VALID,354,VALID,0,
2013-03-02, 02:56:04,VALID,917.518,VALID,0,VALID,96.5124,VALID,0,VALID,20.0944,VALID,29,VALID,0,
2013-03-02, 02:57:04,VALID,918.05,VALID,0,VALID,96.5506,VALID,0,VALID,20.1334,VALID,41,VALID,0,
2013-03-02, 02:58:04,VALID,917.846,VALID,0,VALID,96.5811,VALID,0,VALID,20.1334,VALID,41,VALID,0,
2013-03-02, 02:59:04,VALID,917.405,VALID,0,VALID,96.5811,VALID,0,VALID,20.1529,VALID,41,VALID,0,
2013-03-02, 03:00:04,VALID,917.563,VALID,0,VALID,96.5811,VALID,0,VALID,20.1529,VALID,41,VALID,0,
2013-03-02, 03:01:04,VALID,918.081,VALID,0,VALID,96.5887,VALID,0,VALID,20.1529,VALID,41,VALID,0,
2013-03-02, 03:02:04,VALID,917.493,VALID,0,VALID,96.5887,VALID,0,VALID,20.1724,VALID,41,VALID,0,
2013-03-02, 03:03:04,VALID,918.073,VALID,0,VALID,96.5811,VALID,0,VALID,20.1724,VALID,41,VALID,0,
2013-03-02, 03:04:04,VALID,917.722,VALID,0,VALID,96.6039,VALID,0,VALID,20.1513,VALID,41,VALID,0,
2013-03-02, 03:05:04,VALID,918.434,VALID,0,VALID,96.5887,VALID,0,VALID,20.1724,VALID,41,VALID,0,
2013-03-02, 03:06:04,VALID,917.981,VALID,0,VALID,96.5887,VALID,0,VALID,20.1529,VALID,41,VALID,0,
2013-03-02, 03:07:04,VALID,919.573,VALID,0,VALID,96.6039,VALID,0,VALID,20.1529,VALID,41,VALID,0,
